TimeMST,TemperatureF,Dew PointF,Humidity,Sea Level PressureIn,VisibilityMPH,Wind Direction,Wind SpeedMPH,Gust SpeedMPH,PrecipitationIn,Events,Conditions,WindDirDegrees,DateUTC
12:15 AM,53.6,14.0,21,30.19,10.0,SSE,6.9,-,N/A,,Clear,160,2013-05-25 07:15:00
12:35 AM,53.6,17.6,24,30.19,10.0,SSE,6.9,-,N/A,,Clear,150,2013-05-25 07:35:00
12:55 AM,55.4,17.6,23,30.19,10.0,South,5.8,-,N/A,,Clear,170,2013-05-25 07:55:00
1:15 AM,55.4,23.0,29,30.19,10.0,South,11.5,-,N/A,,Clear,170,2013-05-25 08:15:00
1:35 AM,53.6,24.8,33,30.18,10.0,SSE,9.2,-,N/A,,Clear,160,2013-05-25 08:35:00
1:55 AM,55.4,23.0,29,30.17,10.0,SSE,13.8,20.7,N/A,,Clear,160,2013-05-25 08:55:00
2:15 AM,55.4,19.4,25,30.17,10.0,SSE,15.0,19.6,N/A,,Clear,160,2013-05-25 09:15:00
2:35 AM,55.4,19.4,25,30.17,10.0,SSE,11.5,18.4,N/A,,Clear,160,2013-05-25 09:35:00
2:55 AM,53.6,17.6,24,30.16,10.0,SSE,8.1,-,N/A,,Clear,150,2013-05-25 09:55:00
3:15 AM,50.0,17.6,28,30.16,10.0,SSE,8.1,-,N/A,,Clear,150,2013-05-25 10:15:00
3:35 AM,51.8,12.2,21,30.16,10.0,SSE,10.4,-,N/A,,Clear,160,2013-05-25 10:35:00
3:55 AM,50.0,12.2,22,30.16,10.0,SSE,8.1,-,N/A,,Clear,160,2013-05-25 10:55:00
4:15 AM,50.0,8.6,19,30.16,10.0,SE,8.1,-,N/A,,Clear,140,2013-05-25 11:15:00
4:35 AM,50.0,6.8,17,30.17,10.0,SE,12.7,-,N/A,,Clear,130,2013-05-25 11:35:00
4:55 AM,53.6,14.0,21,30.17,10.0,SE,15.0,19.6,N/A,,Clear,140,2013-05-25 11:55:00
5:15 AM,51.8,15.8,24,30.17,10.0,SE,15.0,-,N/A,,Clear,140,2013-05-25 12:15:00
5:35 AM,53.6,15.8,22,30.18,10.0,SSE,17.3,23.0,N/A,,Clear,150,2013-05-25 12:35:00
5:55 AM,53.6,17.6,24,30.18,10.0,SSE,15.0,-,N/A,,Clear,160,2013-05-25 12:55:00
6:15 AM,53.6,17.6,24,30.19,10.0,SSE,16.1,23.0,N/A,,Clear,150,2013-05-25 13:15:00
6:35 AM,55.4,15.8,21,30.19,10.0,SE,17.3,-,N/A,,Clear,140,2013-05-25 13:35:00
6:55 AM,57.2,14.0,18,30.20,10.0,SE,18.4,-,N/A,,Clear,140,2013-05-25 13:55:00
7:15 AM,57.2,12.2,17,30.19,10.0,SE,17.3,-,N/A,,Clear,140,2013-05-25 14:15:00
7:35 AM,59.0,8.6,14,30.20,10.0,SSE,16.1,20.7,N/A,,Clear,150,2013-05-25 14:35:00
7:55 AM,60.8,6.8,12,30.21,10.0,SSE,15.0,-,N/A,,Clear,150,2013-05-25 14:55:00
8:15 AM,62.6,8.6,12,30.21,10.0,SSE,13.8,-,N/A,,Clear,150,2013-05-25 15:15:00
8:35 AM,64.4,3.2,9,30.22,10.0,SSE,16.1,21.9,N/A,,Clear,160,2013-05-25 15:35:00
8:55 AM,64.4,8.6,11,30.22,10.0,SSE,17.3,25.3,N/A,,Clear,150,2013-05-25 15:55:00
9:15 AM,64.4,14.0,14,30.22,10.0,SSE,17.3,23.0,N/A,,Clear,150,2013-05-25 16:15:00
9:35 AM,66.2,15.8,14,30.21,10.0,SSE,18.4,24.2,N/A,,Clear,150,2013-05-25 16:35:00
9:55 AM,66.2,14.0,13,30.21,10.0,SSE,17.3,25.3,N/A,,Clear,150,2013-05-25 16:55:00
10:15 AM,68.0,10.4,11,30.21,10.0,SSE,13.8,21.9,N/A,,Clear,160,2013-05-25 17:15:00
10:35 AM,68.0,10.4,11,30.22,10.0,SSE,10.4,21.9,N/A,,Clear,160,2013-05-25 17:35:00
10:55 AM,68.0,8.6,10,30.23,10.0,South,12.7,20.7,N/A,,Clear,180,2013-05-25 17:55:00
11:15 AM,69.8,10.4,10,30.23,10.0,South,12.7,19.6,N/A,,Clear,170,2013-05-25 18:15:00
11:35 AM,69.8,10.4,10,30.23,10.0,SSW,15.0,27.6,N/A,,Clear,200,2013-05-25 18:35:00
11:55 AM,69.8,12.2,11,30.23,10.0,South,19.6,25.3,N/A,,Clear,170,2013-05-25 18:55:00
12:15 PM,71.6,12.2,10,30.23,10.0,SSE,17.3,25.3,N/A,,Clear,160,2013-05-25 19:15:00
12:35 PM,71.6,10.4,9,30.23,10.0,South,19.6,25.3,N/A,,Clear,170,2013-05-25 19:35:00
12:55 PM,68.0,10.4,11,30.22,10.0,South,12.7,25.3,N/A,,Clear,190,2013-05-25 19:55:00
1:15 PM,69.8,10.4,10,30.22,10.0,SSW,15.0,25.3,N/A,,Clear,200,2013-05-25 20:15:00
1:35 PM,71.6,8.6,9,30.22,10.0,South,17.3,26.5,N/A,,Clear,180,2013-05-25 20:35:00
1:55 PM,71.6,10.4,9,30.21,10.0,SSW,21.9,-,N/A,,Clear,200,2013-05-25 20:55:00
2:15 PM,75.2,10.4,8,30.20,10.0,South,19.6,28.8,N/A,,Clear,190,2013-05-25 21:15:00
2:35 PM,73.4,10.4,9,30.21,10.0,South,20.7,29.9,N/A,,Clear,190,2013-05-25 21:35:00
2:55 PM,73.4,10.4,9,30.20,10.0,South,20.7,27.6,N/A,,Clear,170,2013-05-25 21:55:00
3:15 PM,73.4,10.4,9,30.20,10.0,South,19.6,26.5,N/A,,Partly Cloudy,170,2013-05-25 22:15:00
3:35 PM,73.4,8.6,8,30.20,10.0,SSE,21.9,27.6,N/A,,Clear,160,2013-05-25 22:35:00
3:55 PM,73.4,8.6,8,30.20,10.0,SSW,21.9,28.8,N/A,,Clear,200,2013-05-25 22:55:00
4:15 PM,73.4,8.6,8,30.20,10.0,South,16.1,24.2,N/A,,Clear,170,2013-05-25 23:15:00
4:35 PM,71.6,8.6,9,30.19,10.0,SW,21.9,29.9,N/A,,Clear,220,2013-05-25 23:35:00
4:55 PM,71.6,8.6,9,30.19,10.0,SSW,15.0,24.2,N/A,,Clear,200,2013-05-25 23:55:00
5:15 PM,71.6,8.6,9,30.19,10.0,South,17.3,25.3,N/A,,Clear,180,2013-05-26 00:15:00
5:35 PM,69.8,10.4,10,30.19,10.0,SSW,15.0,21.9,N/A,,Clear,200,2013-05-26 00:35:00
5:55 PM,68.0,12.2,12,30.19,10.0,SSE,18.4,27.6,N/A,,Clear,160,2013-05-26 00:55:00
6:15 PM,68.0,12.2,12,30.19,10.0,South,12.7,20.7,N/A,,Clear,190,2013-05-26 01:15:00
6:35 PM,66.2,12.2,12,30.19,10.0,South,17.3,24.2,N/A,,Clear,170,2013-05-26 01:35:00
6:55 PM,66.2,14.0,13,30.19,10.0,SSW,15.0,19.6,N/A,,Clear,210,2013-05-26 01:55:00
7:15 PM,64.4,14.0,14,30.20,10.0,SSW,10.4,-,N/A,,Clear,200,2013-05-26 02:15:00
7:35 PM,62.6,14.0,15,30.20,10.0,SSW,12.7,17.3,N/A,,Clear,210,2013-05-26 02:35:00
7:55 PM,62.6,12.2,14,30.20,10.0,South,9.2,16.1,N/A,,Clear,180,2013-05-26 02:55:00
8:15 PM,59.0,12.2,16,30.20,10.0,South,6.9,-,N/A,,Clear,190,2013-05-26 03:15:00
8:35 PM,57.2,14.0,18,30.20,10.0,South,6.9,-,N/A,,Clear,170,2013-05-26 03:35:00
8:55 PM,57.2,12.2,17,30.21,10.0,South,8.1,-,N/A,,Clear,180,2013-05-26 03:55:00
9:15 PM,57.2,12.2,17,30.21,10.0,South,10.4,-,N/A,,Clear,170,2013-05-26 04:15:00
9:35 PM,57.2,12.2,17,30.22,10.0,South,9.2,-,N/A,,Clear,190,2013-05-26 04:35:00
9:55 PM,57.2,12.2,17,30.22,10.0,South,9.2,-,N/A,,Clear,180,2013-05-26 04:55:00
10:15 PM,57.2,12.2,17,30.23,10.0,South,6.9,-,N/A,,Clear,180,2013-05-26 05:15:00
10:35 PM,57.2,14.0,18,30.22,10.0,South,5.8,-,N/A,,Clear,180,2013-05-26 05:35:00
10:55 PM,55.4,14.0,20,30.22,10.0,South,6.9,-,N/A,,Clear,180,2013-05-26 05:55:00
11:15 PM,53.6,14.0,21,30.22,10.0,South,6.9,-,N/A,,Clear,180,2013-05-26 06:15:00
11:35 PM,55.4,14.0,20,30.22,10.0,South,4.6,-,N/A,,Clear,170,2013-05-26 06:35:00
11:55 PM,55.4,14.0,20,30.22,10.0,South,6.9,-,N/A,,Clear,190,2013-05-26 06:55:00